CW2057 Weather Reports


Display with metric or nautical units.
time (UTC)temp
F
wind
direction
speed
MPH
gust
MPH
rain 1hr
in
rain 24hr
in
rain mn
in
humidity
%
barometer
mb
20260903131121 74 280 0.0 4.0 0.00 0.32 0.00 93 1018.1
20260903130650 74 299 0.0 6.0 0.00 0.32 0.00 94 1018.4
20260903130138 74 189 3.0 6.0 0.00 0.32 0.00 94 1018.0
20260903125625 74 262 1.0 4.0 0.00 0.32 0.00 94 1018.3
20260903125115 74 185 1.0 3.0 0.00 0.32 0.00 94 1018.5
20260903124623 74 174 1.0 3.0 0.00 0.32 0.00 94 1018.5
20260903124114 74 165 0.0 0.0 0.00 0.32 0.00 94 1018.7
20260903123619 74 165 0.0 3.0 0.00 0.32 0.00 94 1018.7
20260903123127 74 251 0.0 4.0 0.00 0.32 0.00 94 1018.4
20260903122616 74 228 1.0 6.0 0.00 0.32 0.00 95 1018.6
20260903122124 74 241 3.0 6.0 0.00 0.32 0.00 95 1018.7
20260903121633 74 234 2.0 3.0 0.00 0.32 0.00 95 1018.8
20260903121121 73 248 0.0 2.0 0.00 0.32 0.00 95 1018.9
20260903120629 73 199 0.0 2.0 0.00 0.32 0.00 95 1019.0
20260903120139 73 193 0.0 0.0 0.00 0.32 0.00 95 1019.0
20260903115626 73 192 0.0 0.0 0.00 0.32 0.00 95 1019.3
20260903115115 73 37 0.0 0.0 0.00 0.32 0.00 95 1019.2
20260903114624 73 201 0.0 0.0 0.00 0.32 0.00 95 1019.3
20260903114114 73 303 0.0 0.0 0.00 0.32 0.00 95 1019.6
20260903113624 73 302 0.0 0.0 0.00 0.32 0.00 95 1019.6
20260903113151 73 165 0.0 0.0 0.00 0.32 0.00 95 1019.7
20260903112620 73 25 0.0 0.0 0.00 0.32 0.00 95 1019.8
20260903112130 73 165 0.0 0.0 0.00 0.32 0.00 95 1019.9
20260903111617 73 25 0.0 0.0 0.00 0.32 0.00 95 1019.9
20260903111127 73 22 0.0 0.0 0.00 0.32 0.00 95 1019.8
20260903110615 73 20 0.0 2.0 0.00 0.32 0.00 95 1019.7
20260903110121 73 9 0.0 2.0 0.00 0.32 0.00 95 1019.5
20260903105630 73 37 0.0 0.0 0.00 0.32 0.00 95 1019.4
20260903105120 73 37 0.0 0.0 0.00 0.32 0.00 95 1018.9
20260903104648 73 93 0.0 0.0 0.00 0.32 0.00 95 1018.7
20260903104116 73 93 0.0 0.0 0.00 0.32 0.00 95 1018.7
20260903103645 73 93 0.0 0.0 0.00 0.32 0.00 95 1018.5
20260903103114 73 93 0.0 0.0 0.00 0.32 0.00 95 1018.6
20260903102625 73 93 0.0 0.0 0.00 0.32 0.00 95 1018.5
20260903102133 73 93 0.0 0.0 0.00 0.32 0.00 95 1018.4
20260903101622 73 165 0.0 0.0 0.00 0.32 0.00 95 1018.3
20260903101130 73 165 0.0 0.0 0.00 0.32 0.00 95 1018.3
20260903100620 73 93 0.0 0.0 0.00 0.32 0.00 95 1018.3
20260903100129 73 165 0.0 0.0 0.00 0.32 0.00 95 1018.3
20260903095617 73 93 0.0 0.0 0.00 0.32 0.00 95 1018.2
20260903095127 72 93 0.0 0.0 0.00 0.32 0.00 95 1018.4
20260903094616 72 93 0.0 0.0 0.00 0.32 0.00 95 1018.3
20260903094125 72 93 0.0 0.0 0.00 0.32 0.00 95 1018.1
20260903093614 72 30 0.0 0.0 0.00 0.32 0.00 95 1018.4
20260903093139 72 35 0.0 0.0 0.00 0.32 0.00 94 1018.4
20260903092628 72 214 0.0 0.0 0.00 0.32 0.00 94 1017.7
20260903092115 72 195 0.0 0.0 0.00 0.32 0.00 94 1017.6
20260903091624 72 193 0.0 0.0 0.00 0.32 0.00 94 1017.6
20260903091153 72 143 0.0 0.0 0.00 0.32 0.00 94 1017.8
20260903090641 72 146 0.0 0.0 0.00 0.32 0.00 94 1017.7
20260903090129 73 146 0.0 0.0 0.00 0.32 0.00 94 1017.7
20260903085619 73 126 0.0 0.0 0.00 0.32 0.00 94 1017.8
20260903085127 73 165 0.0 0.0 0.00 0.32 0.00 94 1017.8
20260903084637 72 54 0.0 0.0 0.00 0.32 0.00 94 1017.9
20260903084144 73 54 0.0 0.0 0.00 0.32 0.00 94 1017.8
20260903083653 73 54 0.0 0.0 0.00 0.32 0.00 94 1017.7
20260903083121 73 54 0.0 0.0 0.00 0.32 0.00 94 1017.8
20260903082646 72 54 0.0 0.0 0.00 0.32 0.00 94 1017.8
20260903082115 72 55 0.0 0.0 0.00 0.32 0.00 94 1017.7
20260903081623 72 54 0.0 0.0 0.00 0.32 0.00 94 1017.8
20260903081152 72 55 0.0 0.0 0.00 0.32 0.00 94 1017.7
20260903080620 72 55 0.0 0.0 0.00 0.32 0.00 94 1017.9
20260903080129 72 46 0.0 0.0 0.00 0.32 0.00 94 1018.0
20260903075617 72 46 0.0 0.0 0.00 0.32 0.00 94 1018.0
20260903075125 72 46 0.0 0.0 0.00 0.32 0.00 94 1018.0
20260903074614 72 111 0.0 0.0 0.00 0.32 0.00 94 1017.7
20260903074123 72 189 0.0 0.0 0.00 0.32 0.00 94 1017.7
20260903073633 72 193 0.0 0.0 0.00 0.32 0.00 94 1017.9
20260903073121 72 80 0.0 0.0 0.00 0.32 0.00 94 1017.8
20260903072629 72 80 0.0 0.0 0.00 0.32 0.00 94 1017.9
20260903072139 72 80 0.0 0.0 0.00 0.32 0.00 94 1017.8
20260903071116 72 102 0.0 0.0 0.00 0.32 0.00 94 1017.7
20260903070624 72 103 0.0 0.0 0.00 0.32 0.00 94 1017.5
20260903070114 72 103 0.0 0.0 0.00 0.32 0.00 94 1017.6
20260903065623 72 153 0.0 0.0 0.00 0.32 0.00 94 1017.5
20260903065132 72 207 0.0 2.0 0.00 0.32 0.00 94 1017.5
20260903064636 72 218 0.0 2.0 0.00 0.32 0.00 94 1017.4
20260903064123 72 195 0.0 0.0 0.00 0.32 0.00 94 1017.4
20260903063631 72 205 0.0 0.0 0.00 0.32 0.00 94 1017.4
20260903063120 72 178 0.0 1.0 0.00 0.32 0.00 94 1017.4
20260903062630 72 328 0.0 1.0 0.00 0.32 0.00 94 1017.3
20260903062119 71 184 0.0 0.0 0.00 0.32 0.00 94 1017.4
20260903061629 71 195 0.0 0.0 0.00 0.32 0.00 93 1017.4
20260903061119 71 248 0.0 0.0 0.00 0.32 0.00 93 1017.5
20260903060626 71 248 0.0 0.0 0.00 0.32 0.00 93 1017.6
20260903060115 71 248 0.0 0.0 0.00 0.32 0.00 93 1017.5
20260903055625 71 248 0.0 0.0 0.00 0.32 0.00 93 1017.3
20260903055153 71 248 0.0 0.0 0.00 0.32 0.00 93 1017.3
20260903054641 71 248 0.0 0.0 0.00 0.32 0.00 93 1017.6
20260903054130 71 192 0.0 0.0 0.00 0.32 0.00 94 1017.7
20260903053620 71 183 0.0 0.0 0.00 0.32 0.00 94 1017.6
20260903053128 71 183 0.0 2.0 0.00 0.32 0.00 94 1017.7
20260903052617 71 183 0.0 2.0 0.00 0.32 0.00 94 1017.9
20260903052126 71 315 0.0 0.0 0.00 0.32 0.00 94 1017.9
20260903051614 71 315 0.0 0.0 0.00 0.32 0.00 93 1018.1
20260903051120 71 51 0.0 0.0 0.00 0.32 0.00 93 1018.0
20260903050629 71 170 0.0 0.0 0.00 0.32 0.00 93 1018.0
20260903050119 71 170 0.0 0.0 0.00 0.32 0.00 92 1017.9
20260903045628 71 170 0.0 0.0 0.00 0.32 0.00 93 1017.7
20260903045117 71 170 0.0 0.0 0.00 0.32 0.00 94 1017.9
20260903044627 71 170 0.0 0.0 0.00 0.32 0.00 94 1017.9
20260903044114 71 170 0.0 0.0 0.00 0.32 0.00 94 1018.1
20260903043644 71 170 0.0 0.0 0.00 0.32 0.00 94 1018.1
20260903043131 71 170 0.0 0.0 0.00 0.32 0.00 94 1018.3
20260903042621 71 170 0.0 0.0 0.00 0.32 0.00 94 1018.2
20260903042129 71 170 0.0 0.0 0.00 0.32 0.00 94 1018.1
20260903041619 71 170 0.0 0.0 0.00 0.32 0.00 94 1018.1
20260903041127 71 170 0.0 0.0 0.00 0.32 0.00 93 1018.3
20260903040616 71 170 0.0 0.0 0.00 0.32 0.00 93 1018.7
20260903040124 71 170 0.0 0.0 0.00 0.32 0.00 93 1018.8
20260903035633 72 170 0.0 0.0 0.00 0.32 0.32 93 1018.8
20260903035123 71 170 0.0 0.0 0.00 0.32 0.32 93 1019.1
20260903034630 71 170 0.0 0.0 0.00 0.32 0.32 93 1019.0
20260903034140 72 170 0.0 0.0 0.00 0.32 0.32 93 1018.9
20260903033645 72 170 0.0 0.0 0.00 0.32 0.32 93 1018.9
20260903033131 72 170 0.0 0.0 0.00 0.32 0.32 93 1019.0
20260903032641 72 170 0.0 0.0 0.00 0.32 0.32 94 1018.9
20260903032130 71 170 0.0 0.0 0.00 0.32 0.32 93 1018.9
20260903031618 71 170 0.0 0.0 0.00 0.32 0.32 93 1018.7
20260903031127 71 170 0.0 0.0 0.00 0.32 0.32 93 1018.5
20260903030614 71 170 0.0 0.0 0.00 0.32 0.32 93 1018.5
20260903030144 72 170 0.0 0.0 0.00 0.32 0.32 93 1018.6
20260903025652 72 209 0.0 0.0 0.00 0.32 0.32 93 1018.5
20260903025120 72 197 0.0 0.0 0.00 0.32 0.32 93 1018.5
20260903024629 72 62 0.0 0.0 0.00 0.32 0.32 94 1018.5
20260903024118 71 62 0.0 0.0 0.00 0.32 0.32 93 1018.5
20260903023626 72 62 0.0 0.0 0.00 0.32 0.32 94 1018.6
20260903023115 72 62 0.0 0.0 0.00 0.32 0.32 93 1018.7
20260903022625 72 62 0.0 0.0 0.00 0.32 0.32 93 1018.7
20260903022150 72 62 0.0 0.0 0.00 0.32 0.32 94 1018.7
20260903021617 72 62 0.0 0.0 0.00 0.32 0.32 94 1018.7
20260903021127 72 62 0.0 0.0 0.00 0.32 0.32 93 1018.8
20260903020615 72 62 0.0 0.0 0.00 0.32 0.32 94 1018.9
20260903020125 72 62 0.0 0.0 0.00 0.32 0.32 94 1018.7
20260903015615 71 62 0.0 0.0 0.00 0.32 0.32 93 1018.8
20260903015124 71 62 0.0 0.0 0.00 0.32 0.32 93 1018.9
20260903014633 71 62 0.0 0.0 0.00 0.32 0.32 93 1018.6
20260903014141 72 62 0.0 0.0 0.00 0.32 0.32 93 1018.5
20260903013630 72 62 0.0 0.0 0.00 0.32 0.32 93 1018.6
20260903013118 72 62 0.0 0.0 0.00 0.32 0.32 93 1018.7
20260903012628 72 62 0.0 0.0 0.00 0.32 0.32 93 1019.0
20260903012116 72 62 0.0 0.0 0.00 0.32 0.32 93 1018.8
20260903011625 72 62 0.0 0.0 0.00 0.32 0.32 92 1018.7
20260903011113 72 62 0.0 0.0 0.00 0.32 0.32 92 1018.5
20260903010623 72 136 0.0 0.0 0.00 0.32 0.32 92 1018.2
20260903010132 72 136 0.0 0.0 0.00 0.32 0.32 92 1018.3
20260903005621 72 136 0.0 0.0 0.00 0.32 0.32 92 1018.1
20260903005129 72 136 0.0 0.0 0.00 0.32 0.32 92 1018.0
20260903004619 73 136 0.0 0.0 0.00 0.32 0.32 92 1018.0
20260903004124 73 136 0.0 0.0 0.00 0.32 0.32 93 1018.0
20260903003633 72 136 0.0 0.0 0.00 0.32 0.32 93 1018.1
20260903003121 72 136 0.0 0.0 0.00 0.32 0.32 93 1018.4
20260903002630 72 136 0.0 0.0 0.00 0.32 0.32 93 1018.6
20260903002119 72 136 0.0 0.0 0.00 0.32 0.32 92 1018.3
20260903001628 73 136 0.0 0.0 0.00 0.32 0.32 92 1018.3
20260903001117 73 136 0.0 0.0 0.00 0.32 0.32 92 1018.5
20260903000645 73 136 0.0 0.0 0.00 0.32 0.32 92 1018.3
20260903000113 73 136 0.0 0.0 0.00 0.32 0.32 92 1018.3
20260902235642 73 136 0.0 0.0 0.00 0.32 0.32 91 1018.5
20260902235130 73 136 0.0 0.0 0.00 0.32 0.32 92 1018.5
20260902234618 73 136 0.0 0.0 0.00 0.32 0.32 92 1018.5
20260902234128 73 136 0.0 0.0 0.00 0.32 0.32 91 1018.5
20260902233636 73 136 0.0 0.0 0.00 0.32 0.32 91 1018.5
20260902233124 73 165 0.0 0.0 0.00 0.32 0.32 91 1018.6
20260902232633 73 165 0.0 0.0 0.00 0.32 0.32 91 1018.6
20260902232121 73 165 0.0 0.0 0.00 0.32 0.32 90 1018.5
20260902231627 73 165 0.0 0.0 0.00 0.32 0.32 90 1018.4
20260902231117 73 136 0.0 0.0 0.00 0.32 0.32 89 1018.4
20260902230627 74 136 0.0 0.0 0.00 0.32 0.32 88 1018.5
20260902230116 74 136 0.0 0.0 0.00 0.32 0.32 87 1018.6
20260902225625 74 136 0.0 3.0 0.00 0.32 0.32 86 1018.6
20260902225135 75 251 0.0 3.0 0.00 0.32 0.32 84 1018.7
20260902224623 76 165 1.0 3.0 0.00 0.32 0.32 83 1018.7
20260902224132 76 299 0.0 3.0 0.00 0.32 0.32 84 1018.6
20260902223622 76 295 1.0 3.0 0.00 0.32 0.32 84 1018.4
20260902223129 76 165 0.0 3.0 0.00 0.32 0.32 84 1018.4
20260902222618 76 165 0.0 3.0 0.00 0.32 0.32 84 1018.4
20260902222127 76 165 1.0 3.0 0.00 0.32 0.32 84 1018.4
20260902221616 76 165 0.0 3.0 0.00 0.32 0.32 84 1018.5
20260902221124 76 165 0.0 4.0 0.00 0.32 0.32 84 1018.5
20260902220632 77 165 0.0 4.0 0.00 0.32 0.32 84 1018.6
20260902220122 77 165 0.0 3.0 0.00 0.32 0.32 84 1018.6
20260902215631 77 165 0.0 0.0 0.00 0.32 0.32 85 1018.7
20260902215120 77 165 0.0 0.0 0.00 0.32 0.32 85 1018.7
20260902214628 77 165 0.0 0.0 0.00 0.32 0.32 85 1018.9
20260902214153 76 282 0.0 0.0 0.00 0.32 0.32 86 1019.1
20260902213621 76 294 0.0 0.0 0.00 0.32 0.32 87 1019.1
20260902213130 75 165 0.0 0.0 0.00 0.32 0.32 86 1019.3
20260902212617 76 224 0.0 2.0 0.00 0.32 0.32 87 1019.2
20260902212125 75 165 0.0 2.0 0.00 0.32 0.32 88 1019.1
20260902211615 75 248 0.0 1.0 0.00 0.32 0.32 89 1019.2
20260902211143 74 303 0.0 0.0 0.00 0.32 0.32 90 1019.3
20260902210631 74 323 0.0 0.0 0.00 0.32 0.32 90 1019.2
20260902210120 74 323 0.0 0.0 0.00 0.32 0.32 90 1019.1
20260902205630 74 323 0.0 2.0 0.00 0.32 0.32 90 1019.1
20260902205138 74 323 0.0 2.0 0.00 0.32 0.32 90 1019.0
20260902204626 74 323 0.0 1.0 0.00 0.32 0.32 91 1019.0
20260902204114 74 323 0.0 0.0 0.00 0.32 0.32 91 1019.1
20260902203624 74 323 0.0 0.0 0.00 0.32 0.32 90 1019.1
20260902203132 73 323 0.0 0.0 0.00 0.32 0.32 90 1019.0
20260902202621 74 323 0.0 0.0 0.00 0.32 0.32 89 1019.0
20260902202130 74 323 0.0 0.0 0.00 0.32 0.32 89 1019.2
20260902201619 75 323 0.0 0.0 0.00 0.32 0.32 88 1019.2
20260902201123 74 323 0.0 0.0 0.00 0.32 0.32 89 1019.3
20260902200632 74 323 0.0 0.0 0.00 0.32 0.32 89 1019.2
20260902200121 74 323 0.0 0.0 0.00 0.32 0.32 89 1018.9
20260902195630 74 323 0.0 0.0 0.00 0.32 0.32 89 1018.9
20260902195119 74 50 0.0 0.0 0.00 0.32 0.32 89 1018.8
20260902194628 73 103 0.0 0.0 0.00 0.32 0.32 87 1018.4
20260902194116 74 133 0.0 0.0 0.00 0.32 0.32 87 1018.5
20260902193626 74 351 0.0 0.0 0.00 0.32 0.32 89 1018.5
20260902193154 74 351 0.0 0.0 0.00 0.32 0.32 88 1018.3
20260902192642 74 351 0.0 0.0 0.00 0.32 0.32 87 1018.2
20260902192130 75 351 0.0 0.0 0.00 0.32 0.32 90 1018.2
20260902191620 74 351 0.0 0.0 0.00 0.32 0.32 88 1018.1
20260902191129 74 165 0.0 0.0 0.00 0.32 0.32 89 1018.3
20260902190618 74 5 0.0 0.0 0.00 0.32 0.32 88 1018.6
20260902190128 75 165 0.0 1.0 0.00 0.32 0.32 87 1018.8
20260902185615 76 165 0.0 1.0 0.00 0.32 0.32 86 1019.0
20260902185125 75 165 0.0 0.0 0.01 0.32 0.32 88 1019.3
20260902184613 74 165 0.0 0.0 0.01 0.32 0.32 90 1019.4
20260902184123 73 317 0.0 0.0 0.01 0.32 0.32 91 1019.5
20260902183628 73 165 0.0 0.0 0.02 0.32 0.32 91 1019.5
20260902183116 73 70 0.0 0.0 0.04 0.32 0.32 90 1019.2
20260902182625 73 71 0.0 0.0 0.07 0.32 0.32 90 1019.4
20260902182153 73 71 0.0 0.0 0.13 0.32 0.32 91 1019.7
20260902181622 73 72 0.0 0.0 0.19 0.32 0.32 92 1019.9
20260902181131 72 72 0.0 0.0 0.28 0.32 0.32 91 1019.9
20260902180619 72 72 0.0 2.0 0.30 0.32 0.32 90 1019.9
20260902180129 73 314 0.0 3.0 0.32 0.32 0.32 89 1020.3
20260902175618 73 236 0.0 4.0 0.32 0.32 0.32 89 1020.5
20260902175127 73 301 1.0 4.0 0.31 0.31 0.31 89 1020.9
20260902174616 73 165 1.0 4.0 0.31 0.31 0.31 88 1021.1
20260902174126 74 165 1.0 4.0 0.31 0.31 0.31 88 1021.1
20260902173614 74 314 2.0 5.0 0.30 0.30 0.30 88 1021.2
20260902173124 74 315 1.0 5.0 0.28 0.28 0.28 87 1021.5
20260902172633 74 323 0.0 5.0 0.24 0.24 0.24 88 1021.8
20260902172121 74 6 0.0 5.0 0.18 0.18 0.18 87 1022.3
20260902171630 75 195 0.0 6.0 0.12 0.12 0.12 86 1022.6
20260902171118 77 356 1.0 7.0 0.04 0.04 0.04 81 1023.1
20260902170626 79 39 2.0 7.0 0.01 0.01 0.01 81 1022.7
20260902170116 80 43 0.0 2.0 0.00 0.00 0.00 78 1022.2
20260902165639 81 36 0.0 2.0 0.00 0.00 0.00 76 1021.4
20260902165126 82 124 0.0 3.0 0.00 0.00 0.00 76 1021.0
20260902164615 82 130 0.0 3.0 0.00 0.00 0.00 77 1020.7
20260902164122 82 220 0.0 2.0 0.00 0.00 0.00 75 1020.6
20260902163632 82 243 1.0 3.0 0.00 0.00 0.00 76 1020.5
20260902163120 82 170 0.0 3.0 0.00 0.00 0.00 75 1020.4
20260902162628 83 179 0.0 4.0 0.00 0.00 0.00 75 1020.3
20260902162117 82 187 0.0 5.0 0.00 0.00 0.00 77 1020.3
20260902161627 82 184 1.0 5.0 0.00 0.00 0.00 78 1020.3
20260902161115 81 110 0.0 3.0 0.00 0.00 0.00 78 1020.3
20260902160623 81 99 0.0 5.0 0.00 0.00 0.00 79 1020.4
20260902160132 80 116 0.0 5.0 0.00 0.00 0.00 78 1020.1
20260902155622 81 95 0.0 3.0 0.00 0.00 0.00 77 1020.1
20260902155130 81 190 0.0 4.0 0.00 0.00 0.00 76 1020.1
20260902154619 82 72 0.0 5.0 0.00 0.00 0.00 76 1020.1
20260902154126 83 297 2.0 5.0 0.00 0.00 0.00 75 1020.0
20260902153635 83 124 1.0 5.0 0.00 0.00 0.00 75 1019.9
20260902153122 82 110 0.0 10.0 0.00 0.00 0.00 78 1019.9
20260902152631 83 193 0.0 10.0 0.00 0.00 0.00 75 1019.8
20260902152136 82 151 0.0 6.0 0.00 0.00 0.00 76 1019.7
20260902151624 82 351 1.0 6.0 0.00 0.00 0.00 77 1019.7
20260902151133 82 109 0.0 6.0 0.00 0.00 0.00 75 1019.6
20260902150621 82 263 1.0 5.0 0.00 0.00 0.00 76 1019.8
20260902150130 83 176 3.0 6.0 0.00 0.00 0.00 76 1019.8
20260902145618 81 199 1.0 4.0 0.00 0.00 0.00 79 1019.7
20260902145127 82 103 0.0 7.0 0.00 0.00 0.00 78 1019.9
20260902144616 82 85 2.0 7.0 0.00 0.00 0.00 77 1019.9
20260902144126 81 214 1.0 5.0 0.00 0.00 0.00 80 1019.8
20260902143613 81 50 0.0 3.0 0.00 0.00 0.00 79 1019.8
20260902143123 81 132 1.0 3.0 0.00 0.00 0.00 80 1020.0
20260902142650 81 122 0.0 3.0 0.00 0.00 0.00 78 1019.9
20260902142117 81 41 0.0 3.0 0.00 0.00 0.00 78 1019.9
20260902141626 82 53 1.0 6.0 0.00 0.00 0.00 76 1020.0
20260902141154 82 270 1.0 6.0 0.00 0.00 0.00 77 1020.1
20260902140622 81 282 0.0 3.0 0.00 0.00 0.00 78 1020.1
20260902140132 81 47 1.0 3.0 0.00 0.00 0.00 78 1020.0
20260902135620 80 355 1.0 3.0 0.00 0.00 0.00 78 1020.0
20260902135124 81 128 1.0 5.0 0.00 0.00 0.00 77 1019.9
20260902134633 81 294 1.0 5.0 0.00 0.00 0.00 75 1019.7
20260902134122 81 192 2.0 5.0 0.00 0.00 0.00 78 1019.5
20260902133630 81 75 0.0 5.0 0.00 0.00 0.00 76 1019.5
20260902133119 81 192 2.0 5.0 0.00 0.00 0.00 77 1019.6
20260902132628 81 124 0.0 3.0 0.00 0.00 0.00 77 1019.6
20260902132116 80 219 0.0 3.0 0.00 0.00 0.00 82 1019.5
20260902131625 79 103 0.0 0.0 0.00 0.00 0.00 80 1019.4